Regional Weather Roundup
Issued by NWS Upton, NY

Current Version | Previous Version | Text Only | Print | Product List | Glossary Off
Versions: 1 2 3 4 5 6 7 8 9 10 11 12 13 14 15 16 17 18 19 20 21 22 23 24 25 26 27 28 29 30 31 32 33 34 35 36 37 38 39 40 41 42 43 44 45 46 47 48 49
000 ASUS41 KOKX 170905 RWROKX REGIONAL WEATHER ROUNDUP NATIONAL WEATHER SERVICE NEW YORK NY 500 AM EDT WED SEP 17 2014 NOTE: "FAIR" INDICATES FEW OR NO CLOUDS BELOW 12,000 FEET WITH NO SIGNIFICANT WEATHER AND/OR OBSTRUCTIONS TO VISIBILITY. NYZ071-072-176-178-NJZ106-104-171000- NEW YORK CITY METRO AREA CITY SKY/WX TMP DP RH WIND PRES REMARKS CENTRAL PARK CLEAR 58 48 69 CALM 30.06R LAGUARDIA APRT CLEAR 61 52 72 CALM 30.02S KENNEDY INTL CLEAR 56 51 84 N5 30.03S NEWARK/LIBERTY CLEAR 56 49 77 CALM 30.03S BRNX BOT. GARD N/A 54 52 94 NE1 30.05R TETERBORO CLEAR 54 48 80 N3 30.02S $$ NYZ177-179-078>081-171000- LONG ISLAND NEW YORK CITY SKY/WX TMP DP RH WIND PRES REMARKS FARMINGDALE PTCLDY 56 53 90 N3 30.03R ISLIP PTCLDY 52 50 93 CALM 30.01R SHIRLEY PTCLDY 53 49 86 N3 30.03R WESTHAMPTON CLOUDY 50 47 89 N6 30.03S MONTAUK POINT N/A 61 48 62 N6 30.02R $$ NYZ052-065-067-171000- HUDSON VALLEY CITY SKY/WX TMP DP RH WIND PRES REMARKS WHITE PLAINS CLEAR 49 47 93 NW7 30.02S NEWBURGH CLEAR 48 46 93 CALM 30.05S MONTGOMERY CLEAR 44 42 93 S5 30.04S FOG POUGHKEEPSIE FOG 45 43 93 CALM 30.04R VSB 3/4 ALBANY CLEAR 47 43 86 CALM 30.04S $$ NJZ001-105-106-008-010-013-015-019>022-104-171000- NEW JERSEY CITY SKY/WX TMP DP RH WIND PRES REMARKS NEWARK/LIBERTY CLEAR 56 49 77 CALM 30.03S TETERBORO CLEAR 54 48 80 N3 30.02S CALDWELL CLEAR 48 45 89 CALM 30.05R MORRISTOWN PTCLDY 43 41 93 CALM 30.05R SOMERVILLE CLEAR 44 42 93 CALM 30.03R LINDEN FAIR 58 53 83 CALM 30.05R SUSSEX FOG 46 43 89 CALM 30.06R VSB 1/4 ANDOVER N/A 43 43 100 CALM 30.06R TRENTON CLEAR 49 47 93 CALM 30.03S MILLVILLE CLEAR 53 50 89 N5 30.03R ATLANTIC CITY CLEAR 51 49 92 NW5 30.02S WRIGHTSTOWN CLEAR 50 49 97 NW2 30.01S TOMS RIVER CLEAR 52 48 87 CALM 30.03S BELMAR CLEAR 52 45 76 NW6 30.03R $$ PAZ047>061-062-071-171000- EASTERN PENNSYLVANIA CITY SKY/WX TMP DP RH WIND PRES REMARKS PHILADELPHIA PTCLDY 56 50 80 N5 30.04R ALLENTOWN CLEAR 47 45 93 CALM 30.05S SCRANTON CLEAR 44 42 93 E5 30.06S $$ CTZ002-004>006-009-010-012-RIZ004-006-007-MAZ004-011-015-171000- SOUTHERN NEW ENGLAND IN CT CITY SKY/WX TMP DP RH WIND PRES REMARKS BRADLEY INTL CLEAR 44 42 93 CALM 30.01F HARTFORD FOG 48 47 96 S3 30.03R VSB 1/4 DANBURY FOG 46 45 96 CALM 30.04S VSB 3/4 WTRBRY/OXFORD CLEAR 46 39 76 CALM 30.04S BRIDGEPORT CLEAR 54 49 83 N6 30.02S MERIDEN PTCLDY 44 42 93 CALM 30.03S FOG NEW HAVEN CLEAR 53 46 77 N5 30.02S CHESTER FAIR 52 46 82 NW3 30.02S GROTON CLEAR 50 47 89 N7 30.00R WILLIMANTIC CLOUDY 47 46 97 CALM 30.02S FOG IN RI CITY SKY/WX TMP DP RH WIND PRES REMARKS PROVIDENCE CLEAR 52 49 89 W3 30.00S BLOCK ISLAND MOCLDY 57 46 67 N7 30.00S WESTERLY CLEAR 51 48 89 N3 30.00S IN MA CITY SKY/WX TMP DP RH WIND PRES REMARKS BOSTON PTCLDY 56 50 80 W6 29.99R WORCESTER CLEAR 49 44 83 W10 30.00R WESTFIELD CLEAR 43 40 89 CALM 30.02R PROVINCETOWN CLEAR 50 45 81 W5 29.99R NANTUCKET CLEAR 54 51 90 CALM 29.98S $$ ANZ330-335-338-340-345-350-353-355-171000- COASTAL MARINE OBSERVATIONS STATION/POSITION TIME SKY/WX TEMP WIND PRES VSBY WAVE AIR SEA DIR/SP/G HT/PER (UTC) (F) (DEG/KT/KT) (MB) (MI) (FT/S) NY HARB ENTRANCE NOT AVBL 4S FIRE IS NOT AVBL 23SW MTP 0900 N/A 3/14 HUDSON CANYON 0900 67 74 10/ 14/ 16 1015.0 3/13 EXECUTION ROCKS 0900 60 71 360/ 6/ 10 N/A WESTERN LI SOUND 0900 60 350/ 12/ 14 N/A 1 CENTRAL LI SOUND 0900 61 71 360/ 14/ 17 N/A 1/ 3 EASTERN LI SOUND 0800 60 67 350/ 14/ 16 N/A ROBBINS REEF 0900 59 340/ 4/ 5 1015.7 $$ >>>>>>>>>>>>>>>>>>>>>>>>>>>> KEY <<<<<<<<<<<<<<<<<<<<<<<<<<< > < > SKY/WX - SKY CONDITION/PRESENT WEATHER < > TMP - TEMPERATURE IN FAHRENHEIT < > DP - DEWPOINT IN FAHRENHEIT < > RH - RELATIVE HUMIDITY IN PERCENT < > WIND - DIRECTION AND SPEED IN MPH < > PRES - MEAN SEA LEVEL PRESSURE IN INCHES OF HG < > WCI - WIND CHILL INDEX < > VSB - VISIBILITY IN MILES < > HX - HEAT INDEX < > TC - TEMPERATURE IN CELSIUS < > VRB - VARIABLE WIND DIRECTION < > < >>>>>>>>>>>>>>>>>>>>>>>>>>>> KEY <<<<<<<<<<<<<<<<<<<<<<<<<<<

USA.gov is the U.S. government's official web portal to all federal, state and local government web resources and services.